Location: Unspecified
(42.6178°N, 0.0000°E)
Time: 18:30:18
(UTC+00:00)

Oscar 14 - Visible Passes

Search period start: 04 April 2026 00:00
Search period end: 14 April 2026 00:00
Orbit: 773 x 789 km, 98.8° (Epoch: 29 March)

Date Brightness Start Highest point End Pass type
(mag) Time Alt. Az. Time Alt. Az. Time Alt. Az.
4 Apr ? 19:52:38 14° SSE 19:57:08 75° ENE 20:02:16 10° N visible
4 Apr ? 21:34:30 10° WSW 21:36:56 13° W 21:39:23 10° WNW visible
5 Apr ? 19:20:20 10° SE 19:25:04 39° ENE 19:29:48 10° N visible
5 Apr ? 21:00:29 12° SSW 21:04:24 27° W 21:08:43 10° NW visible
6 Apr ? 20:27:49 15° S 20:32:02 53° W 20:37:04 10° NNW visible
7 Apr ? 19:55:09 13° SSE 19:59:48 79° ENE 20:04:57 10° NNW visible
7 Apr ? 21:37:28 10° WSW 21:39:39 13° W 21:41:49 10° WNW visible
8 Apr ? 19:22:57 10° SE 19:27:43 40° ENE 19:32:30 10° N visible
8 Apr ? 21:03:00 11° SSW 21:07:06 25° W 21:11:20 10° NW visible
9 Apr ? 20:30:21 13° S 20:34:43 50° W 20:39:43 10° NNW visible
10 Apr ? 19:57:41 12° SSE 20:02:29 83° ENE 20:07:37 10° NNW visible
10 Apr ? 21:40:29 10° WSW 21:42:21 12° W 21:44:14 10° WNW visible
11 Apr ? 19:25:35 10° SE 19:30:24 42° ENE 19:35:13 10° N visible
11 Apr ? 21:05:41 10° SSW 21:09:48 24° W 21:13:56 10° NW visible
12 Apr ? 20:32:52 12° S 20:37:24 48° W 20:42:21 10° NNW visible
13 Apr ? 20:00:12 11° SSE 20:05:09 86° ENE 20:10:19 10° NNW visible
13 Apr ? 21:43:34 10° WSW 21:45:04 11° W 21:46:34 10° WNW visible
